Location: Dehesa de la Cepeda
(40.6574°N, 4.3013°W)
Time: 13:15:37
(UTC+00:00)

Vanguard 2 Rocket - Pass Details

Date: 10 August 2021
Orbit: 556 x 3323 km, 32.9° (Epoch: 24 September)

Event Time Altitude Azimuth Distance (km) Brightness Sun altitude
Rises 05:40:01 0° 249° (WSW) 4,343 9.7 2.2°
Reaches altitude 10° 05:43:47 10° 241° (WSW) 2,939 8.9 2.9°
Maximum altitude 05:49:41 34° 178° (S) 1,253 7.6 4.0°
Drops below altitude 10° 05:53:45 10° 112° (ESE) 2,011 9.6 4.7°
Sets 05:55:53 0° 102° (ESE) 2,802 10.7 5.1°
